1st Responders/1st Detectors/Storm Spotters Weather Summary for Whitley County, KY

Forecast Maps


Reg. NEXRAD Animation


National Fire Danger: Day 1 & 2 Map

Current NWS Watch/Warnings

SPC Convective Day 1 Outlook


Day 2 Outlook

(Click images to enlarge|Page will refresh every 5 minutes)
UK Ag. Weather Center Desktop Severe Weather Service[HERE]
Whitley County, KY Hazardous Weather Outlook Webcast
(9 AM to 9 PM Mon-Fri)
[Fast]
[Dial-up]


UKAWC 1st Detectors/1st Responders Precision Weather Forecast For WHITLEY County, Kentucky
(based on the NWS County Digital Forecast)

ISSUED AT 00:00 UTC ON FRIDAY OCT 19 2018
DAY THURSDAY FRIDAY
EDT 3HR 9P 10P 11P MIDN 1A 2A 3A 4A 5A 6A 7A 8A 9A 10A 11A NOON 1P 2P 3P 4P 5P 6P 7P
MAX/MIN -- -- -- -- -- -- -- -- -- -- -- 36° -- -- -- -- -- -- -- -- -- -- 67°
TEMP 45° 43° 41° 40° 40° 40° 38° 38° 38° 36° 36° 38° 41° 49° 54° 59° 63° 65° 67° 67° 67° 65° 61°
SKY COVER 3% 3% 3% 3% 3% 3% 3% 4% 5% 5% 6% 8% 9% 12% 15% 18% 22% 27% 31% 41% 56% 59% 67%
Clouds
DEW PT 40° 38° 38° 38° 38° 36° 36° 36° 36° 36° 36° 36° 40° 43° 43° 45° 45° 47° 47° 49° 49° 50° 52°
RH 82% 82% 85% 88% 92% 89% 92% 92% 95% 100% 100% 96% 92% 80% 66% 57% 52% 52% 48% 50% 52% 60% 72%
POP 12HR -- -- -- -- -- -- -- -- -- -- -- 0% -- -- -- -- -- -- -- -- -- -- --
RAIN/SNOW (liq.equ) -- -- -- -- -- 0.00in -- -- -- -- -- 0.00in -- -- -- -- -- 0.00in -- -- -- -- --
SNOWFALL -- -- -- -- -- 0in -- -- -- -- -- 0in -- -- -- -- -- 0in -- -- -- -- --
WIND SPEED(MPH) 2 1 1 1 1 1 1 1 1 1 1 1 1 2 2 6 6 7 8 8 7 6 6
WIND Gust(MPH) 5 2 2 2 2 2 2 2 2 2 2 2 2 5 5 7 7 7 9 9 7 7 7
WIND DIR NE NE NE NE NE NE NE E E E E SE S S S SW SW SW SW SW SW SW SW
DEW Mod Dew Mod Dew Mod Dew Mod Dew Mod Dew Mod Dew Mod Dew Mod Dew Mod Dew Mod Dew Mod Dew Mod Dew Mod Dew Lgt Dew -- -- -- -- -- -- -- -- Lgt Dew
HeatIndex 43 43 41 40 40 40 38 38 38 36 36 38 41 49 54 59 63 65 67 67 67 65 61
Rain Showers -- -- -- -- -- -- -- -- -- -- -- -- -- -- -- -- -- -- -- -- -- -- Slight Chance
Frost -- -- -- -- -- -- -- -- -- Patchy Patchy -- -- -- -- -- -- -- -- -- -- -- --
WIND CHILL -- -- -- -- -- -- -- -- -- -- -- -- -- -- -- -- -- -- -- -- -- -- --
SPRAY COND
DRY COND
LIVESTOCK COLDSTRESS
LIVESTOCK HEATSTRESS 46.37 44.56 42.47 41.24 40.83 41.14 38.92 38.92 38.57 36.00 36.00 38.46 41.78 50.08 54.90 58.95 61.89 63.36 64.65 64.75 64.84 63.64 60.66



DAY SATURDAY SUNDAY MONDAY TUESDAY WEDNESDAY THURSDAY
EDT 6HR 8P 9P 10P 11P MIDN 1A 2A 3A 4A 5A 6A 7A 8A 11A 2P 5P 8P 11P 2A 5A 8A 11A 2P 5P 8P 2A 8A 2P 8P 2A 8A 2P 8P 2A 8A 2P 8P 2A 8A 2P 8P
MAX/MIN -- -- -- -- -- -- -- -- -- -- -- -- 50° -- -- 58° -- -- -- -- 36° -- -- 49° -- -- 31° 59° -- -- 41° 63° -- -- 40° 61° -- -- 41° 61° --
TEMP 59° 58° 58° 58° 58° 56° 54° 54° 54° 52° 52° 52° 50° 52° 56° 56° 52° 47° 41° 38° 36° 40° 49° 49° 43° 36° 34° 58° 50° 47° 43° 63° 52° 43° 43° 61° 50° 45° 43° 61° 47°
SKY COVER 78% 82% 86% 92% 94% 96% 98% 99% 99% 100% 100% 99% 100% 91% 78% 56% 42% 33% 27% 12% 10% 4% 5% 2% 0% 0% 2% 14% 27% 46% 30% 19% 16% 12% 16% 33% 40% 56% 71% 62% 65%
Clouds
DEW PT 52° 54° 54° 54° 54° 54° 54° 52° 52° 50° 50° 50° 50° 50° 49° 47° 43° 40° 34° 32° 31° 27° 27° 27° 32° 31° 31° 34° 38° 40° 40° 41° 45° 43° 40° 45° 45° 41° 40° 43° 45°
RH 77% 83% 86% 87% 89% 93% 96% 96% 92% 92% 96% 96% 100% 93% 77% 69% 73% 73% 75% 81% 81% 56% 43% 42% 67% 85% 88% 39% 61% 79% 88% 45% 76% 96% 92% 53% 80% 89% 85% 53% 89%
POP 12HR 19% -- -- -- -- -- -- -- -- -- -- -- 89% -- -- -- 63% -- -- -- 7% -- -- -- 1% -- 0% -- 0% -- 2% -- 2% -- 3% -- 4% -- 14% -- 20%
RAIN/SNOW (liq.equ) 0.00in -- -- -- -- -- 0.14in -- -- -- -- -- 0.22in -- 0.01in -- 0.00in -- 0.00in -- 0.00in -- 0.00in -- 0.00in -- -- -- -- -- -- -- -- -- -- -- -- -- -- -- --
SNOWFALL 0in -- -- -- -- -- 0in -- -- -- -- -- 0in -- 0in -- 0in -- 0in -- 0in -- 0in -- 0in -- -- -- -- -- -- -- -- -- -- -- -- -- -- -- --
WIND SPEED(MPH) 5 5 5 5 5 5 6 6 7 7 7 6 6 7 8 10 14 10 8 7 6 7 7 5 2 0 0 7 2 2 1 5 2 1 2 5 5 5 5 6 6
WIND DIR SW SW SW SW SW W W W W W W W W W W W W NW NW N N N N N N SE SE SW SW SW S W N NE E E NE NE E E E
HeatIndex 59 58 58 58 58 56 54 54 54 52 52 52 50 52 56 56 52 47 36 32 31 36 49 49 41 36 34 58 50 47 43 63 52 43 41 61 50 42 41 61 47
Rain Showers Chance Chance Chance Likely Likely Definite Definite Definite Definite Definite Definite Likely Likely Chance Slight Chance Slight Chance -- -- -- -- -- -- -- -- -- -- -- -- -- -- -- -- -- -- -- -- -- -- Slight Chance Slight Chance Slight Chance
Frost -- -- -- -- -- -- -- -- -- -- -- -- -- -- -- -- -- -- -- -- Patchy -- -- -- -- -- Widespread -- -- -- -- -- -- -- -- -- -- -- -- -- --
WIND CHILL -- -- -- -- -- -- -- -- -- -- -- -- -- -- -- -- -- -- 36° 33° 31° 35° -- -- -- -- -- -- -- -- -- -- -- -- -- -- -- 43° 40° -- --
SPRAY COND
DRY COND
LIVESTOCK COLDSTRESS
LIVESTOCK HEATSTRESS 58.97 58.07 58.06 58.06 58.05 56.11 54.11 54.11 54.21 52.30 52.15 52.15 50.00 52.26 56.35 56.48 53.01 48.75 43.45 40.17 38.38 44.55 52.07 52.13 45.87 37.88 35.64 58.27 51.89 48.36 44.04 61.73 52.90 43.35 43.70 60.43 50.97 45.83 44.30 60.43 47.71

Click on individual weather variable above in left-hand column (ie., TEMP, RH, QPF 12HR) to view state forecast maps






NWS 48 Hr. Forecast Maps,

Regional Hourly Observations For WHITLEY County, Kentucky
Issued at 900 PM EDT THU OCT 18 2018
SOUTHEAST KENTUCKY
  
CITY           SKY/WX    TMP DP  RH WIND       PRES   REMARKS
JACKSON        FAIR      47  32  56 CALM      30.41F                  
LONDON         FAIR      46  39  76 N3        30.41S                  
SOMERSET       NOT AVBL                                               
MIDDLESBORO    NOT AVBL                                               
MONTICELLO     FAIR      41  39  93 NE9       30.43R                  


Current NOWCAST not available:
Nowcasts are not issued routinely during fair weather. Only when
precipitation or other significant weather is occuring in this county will these
forecasts be issued. Currently, there is no short term forecast in effect.


Fire Weather Forecast For WHITLEY County, KY
Provided by the National Weather Service:

Issued at: Thu Oct 18 21:05:01 EDT 2018

                      Tonight      Fri          Fri Night    Sat          

Cloud Cover           Clear        MClear       MCldy        MCldy        
Chance precip (%)     0            0            90           70           
Precip type           None         None         showers      showers      
Temp (24H TREND)      32-42 (+4)   64-67 (+9)   47-53        56-59        
Rh % (24H TREND)      89-100 (+6)  45-50 (+9)   96-100       65-70        
20ftwnd-AM(mph)                    Lgt/Var                   W 3-7        
20ftwnd-PM(mph)       Lgt/Var      SW 3-7       SW 2-6       W 7-11 G19   
Precip duration                                 5            2            
Precip begin                                    Continuing   Continuing   
Precip end                                      Continuing   Continuing   
Precip amount         0.00         0.00         0.37         0.01         
LAL                   1            1            1            1            
Haines Index (MID)                 4                         2            
Mixing hgt(ft-AGL)                 3200                      4000         
Transport wnd (mph)                SW 15                     W 28         
Vent rate (kt-ft)                  40757                     94496        
ADI Early             4 Very Poor  39 Fair      9 Poor       47 Gen Good  
ADI Late              18 Gen Poor  55 Gen Good  24 Fair      75 Good      
Max LVORI Early       6            5            6            5            
Max LVORI Late        8            3            6            3            

REMARKS...RANGES OF MIN T EXCEEDING 8 DEGREES & RANGES OF MAX RH        
EXCEEDING 10% INDICATE THE LIKELIHOOD OF THERMAL BELTS. ADI IS        
ATMOSPHERIC DISPERSION INDEX BY LAVDAS. DISPERSION INDEX IS        
MAGNITUDE OF VENT RATE DIVIDED BY 1000.


SPC's Fire Weather Web Tool (Excellent!), SPC's Fire Weather Outlooks, NWS Fire Weather WEB, Fire Danger Class Map,
Keetch-Byram Drought Index, ROMAN Web, Haines Index ,
WFAS's 10-hr Dead Fuel Moist., WFAS's 100-hr Dead Fuel Moist., Probablity of Ignition, Visual blackness Map, Palmer Drought Index, HPC's Rainfall Forecast Maps


Hazardous Weather Outlook For WHITLEY County, Kentucky
335 PM EDT Thu Oct 18 2018

   FROST ADVISORY IN EFFECT FROM 2 AM TO 10 AM EDT FRIDAY  

This hazardous weather outlook is for portions of eastern Kentucky.

 DAY ONE  Tonight.

Overnight temperatures approaching the freezing mark will promote
frost development across portions of eastern Kentucky late 
tonight, particularly in the valleys. 

 DAYS TWO THROUGH SEVEN  Friday through Wednesday.

Frost is expected to clear off Friday morning. 

Sunday morning low temperatures are expected to drop to near 
freezing generally west of I-75 and north of I-64, allowing for
the potential of some frost around sunrise.  

Temperatures are expected to drop down to or below the freezing 
mark again Monday morning, resulting in the likelihood of frost 
across much of eastern Kentucky, especially in the valley 
locations. 

 SPOTTER INFORMATION STATEMENT  

Spotter activation is not anticipated.

Latest WHITLEY County, Kentucky Watches, Warnings and Advisories.
Additional Drought Info.: UKAWC Drought Page, Kentucky Drought Watch


7-Day Forecast For WHITLEY County, KY


FROST ADVISORY IN EFFECT FROM 2 AM TO 10 AM EDT FRIDAY

TONIGHT
Clear. Patchy valley fog. Patchy frost late. Lows in the upper 30s. Light winds.

FRIDAY
Mostly sunny. Patchy valley fog and frost early. A 20 percent chance of rain showers late. Highs in the upper 60s. Light winds.

FRIDAY NIGHT
A chance of showers in the evening, then showers. Lows in the lower 50s. Light winds. Chance of rain 90 percent.

SATURDAY
Cloudy with showers likely in the morning, then partly sunny with a chance of showers in the afternoon. Highs in the upper 50s. Light winds becoming west around 10 mph in the afternoon. Chance of rain 70 percent.

SATURDAY NIGHT
Cold. Mostly clear. Lows in the mid 30s. Northwest winds around 10 mph.

SUNDAY
Sunny. Highs in the lower 50s.

SUNDAY NIGHT
Cold, clear. Widespread frost. Lows in the lower 30s.

MONDAY
Sunny. Highs around 60.

MONDAY NIGHT
Partly cloudy. Lows in the lower 40s.

TUESDAY
Sunny. Highs in the lower 60s.

TUESDAY NIGHT
Mostly clear. Lows in the lower 40s.

WEDNESDAY
Mostly sunny. Highs in the lower 60s.

WEDNESDAY NIGHT
Mostly cloudy with a 20 percent chance of showers. Lows in the mid 40s.

THURSDAY
Partly sunny with a 20 percent chance of showers. Highs in the lower 60s.

Ag Weather Center, Department of Biosystems & Agricultural Engineering, University of Kentucky